timestamp,wind_dir_avg,wind_spd_avg,wind_spd_max_dir,wind_spd_gust,battery_voltage,lat,long
2021-12-09 00:04:01+00:00,28.0,3.94,27.0,4.87,12.49,47.59359,-54.27349
2021-12-09 00:14:01+00:00,3.0,3.53,319.0,4.94,12.49,47.59359,-54.27349
2021-12-09 00:24:01+00:00,14.0,4.87,21.0,5.91,12.49,47.59359,-54.27349
2021-12-09 00:34:01+00:00,357.0,4.06,326.0,5.33,12.49,47.59359,-54.27349
2021-12-09 00:44:01+00:00,23.0,3.65,31.0,4.7,12.49,47.59359,-54.27349
2021-12-09 00:54:01+00:00,0.0,4.45,358.0,5.39,12.49,47.59359,-54.27349
2021-12-09 01:04:01+00:00,356.0,4.08,14.0,5.54,12.49,47.59359,-54.27349
2021-12-09 01:14:01+00:00,14.0,4.68,17.0,6.12,12.49,47.59359,-54.27349
2021-12-09 01:24:01+00:00,23.0,3.79,27.0,4.56,12.49,47.59359,-54.27349
2021-12-09 01:34:01+00:00,355.0,3.23,316.0,4.89,12.49,47.59359,-54.27349
2021-12-09 01:44:01+00:00,17.0,3.58,32.0,4.65,12.49,47.59359,-54.27349
2021-12-09 01:54:01+00:00,21.0,3.29,355.0,4.85,12.49,47.59359,-54.27349
2021-12-09 02:04:01+00:00,26.0,3.43,23.0,3.91,12.49,47.59359,-54.27349
2021-12-09 02:14:00+00:00,357.0,3.29,3.0,3.78,12.41,47.59359,-54.27349
2021-12-09 02:24:00+00:00,32.0,3.36,34.0,4.01,12.41,47.59359,-54.27349
2021-12-09 02:34:00+00:00,354.0,2.82,354.0,3.34,12.41,47.59359,-54.27349
2021-12-09 02:44:00+00:00,0.0,2.62,3.0,3.17,12.41,47.59359,-54.27349
2021-12-09 02:54:00+00:00,357.0,2.48,50.0,3.44,12.41,47.59359,-54.27349
2021-12-09 03:04:00+00:00,325.0,2.28,310.0,3.31,12.41,47.59359,-54.27349
2021-12-09 03:14:01+00:00,358.0,2.19,313.0,3.26,12.41,47.59359,-54.27349
2021-12-09 03:24:01+00:00,1.0,2.71,321.0,3.83,12.41,47.59359,-54.27349
2021-12-09 03:34:01+00:00,5.0,3.83,35.0,4.62,12.41,47.59359,-54.27349
2021-12-09 03:44:01+00:00,344.0,2.7,316.0,3.7,12.41,47.59359,-54.27349
2021-12-09 03:54:01+00:00,359.0,3.25,6.0,3.95,12.41,47.59359,-54.27349
2021-12-09 04:04:01+00:00,357.0,3.45,324.0,4.32,12.41,47.59359,-54.27349
2021-12-09 04:14:00+00:00,336.0,3.59,350.0,4.66,12.41,47.59359,-54.27349
2021-12-09 04:24:00+00:00,344.0,3.43,39.0,4.56,12.41,47.59359,-54.27349
2021-12-09 04:34:00+00:00,47.0,4.44,45.0,5.18,12.41,47.59359,-54.27349
2021-12-09 04:44:00+00:00,33.0,4.65,38.0,5.63,12.41,47.59359,-54.27349
2021-12-09 04:54:00+00:00,38.0,5.35,35.0,6.62,12.41,47.59359,-54.27349
2021-12-09 05:04:00+00:00,47.0,4.82,49.0,5.9,12.41,47.59359,-54.27349
2021-12-09 05:14:01+00:00,58.0,6.62,64.0,9.93,12.41,47.59359,-54.27349
2021-12-09 05:24:01+00:00,59.0,5.98,69.0,9.6,12.41,47.59359,-54.27349
2021-12-09 05:34:01+00:00,69.0,8.4,70.0,10.29,12.41,47.59359,-54.27349
2021-12-09 05:44:01+00:00,67.0,10.6,73.0,11.4,12.41,47.59359,-54.27349
2021-12-09 05:54:01+00:00,79.0,8.36,75.0,10.9,12.41,47.59359,-54.27349
2021-12-09 06:04:01+00:00,77.0,9.26,78.0,10.67,12.41,47.59359,-54.27349
2021-12-09 06:14:00+00:00,74.0,7.75,80.0,9.99,12.33,47.59359,-54.27349
2021-12-09 06:24:00+00:00,76.0,8.0,87.0,10.75,12.33,47.59359,-54.27349
2021-12-09 06:34:00+00:00,74.0,10.29,76.0,11.08,12.33,47.59359,-54.27349
2021-12-09 06:44:00+00:00,75.0,6.56,76.0,10.05,12.33,47.59359,-54.27349
2021-12-09 06:54:00+00:00,76.0,8.0,66.0,11.22,12.33,47.59359,-54.27349
2021-12-09 07:04:00+00:00,78.0,5.44,76.0,9.48,12.33,47.59359,-54.27349
2021-12-09 07:14:00+00:00,77.0,8.89,78.0,10.9,12.33,47.59359,-54.27349
2021-12-09 07:24:00+00:00,75.0,9.77,71.0,11.63,12.33,47.59359,-54.27349
2021-12-09 07:34:00+00:00,68.0,10.21,71.0,11.4,12.33,47.59359,-54.27349
2021-12-09 07:44:00+00:00,67.0,11.07,64.0,12.13,12.33,47.59359,-54.27349
2021-12-09 07:54:00+00:00,75.0,10.32,76.0,11.45,12.33,47.59359,-54.27349
2021-12-09 08:04:00+00:00,85.0,8.76,86.0,10.84,12.33,47.59359,-54.27349
2021-12-09 08:14:01+00:00,78.0,9.95,70.0,11.5,12.33,47.59359,-54.27349
2021-12-09 08:24:01+00:00,72.0,8.74,73.0,10.72,12.33,47.59359,-54.27349
2021-12-09 08:34:01+00:00,70.0,9.19,76.0,11.1,12.33,47.59359,-54.27349
2021-12-09 08:44:01+00:00,63.0,8.94,70.0,11.69,12.33,47.59359,-54.27349
2021-12-09 08:54:01+00:00,64.0,9.34,68.0,11.97,12.33,47.59359,-54.27349
2021-12-09 09:04:01+00:00,67.0,9.75,70.0,12.1,12.33,47.59359,-54.27349
2021-12-09 09:14:00+00:00,66.0,9.82,70.0,11.7,12.25,47.59359,-54.27349
2021-12-09 09:24:00+00:00,82.0,9.1,92.0,10.63,12.25,47.59359,-54.27349
2021-12-09 09:34:00+00:00,77.0,8.76,68.0,10.8,12.25,47.59359,-54.27349
2021-12-09 09:44:00+00:00,68.0,10.23,74.0,13.71,12.25,47.59359,-54.27349
2021-12-09 09:54:00+00:00,68.0,12.79,73.0,17.85,12.25,47.59359,-54.27349
2021-12-09 10:04:00+00:00,68.0,14.94,72.0,18.97,12.25,47.59359,-54.27349
2021-12-09 10:14:00+00:00,62.0,11.93,69.0,18.36,12.25,47.59359,-54.27349
2021-12-09 10:24:00+00:00,70.0,10.27,72.0,12.6,12.25,47.59359,-54.27349
2021-12-09 10:34:00+00:00,69.0,10.48,78.0,17.01,12.25,47.59359,-54.27349
2021-12-09 10:44:00+00:00,315.0,0.01,61.0,0.0,12.25,47.59359,-54.27349
2021-12-09 10:54:00+00:00,315.0,0.01,61.0,0.0,12.25,47.59359,-54.27349
2021-12-09 11:04:00+00:00,315.0,0.01,61.0,0.0,12.25,47.59359,-54.27349
2021-12-09 11:14:01+00:00,315.0,0.01,61.0,0.0,12.25,47.59359,-54.27349
2021-12-09 11:24:01+00:00,315.0,0.01,61.0,0.0,12.25,47.59359,-54.27349
2021-12-09 11:34:01+00:00,315.0,0.01,61.0,0.0,12.25,47.59359,-54.27349
2021-12-09 11:44:01+00:00,56.0,9.88,62.0,13.13,12.25,47.59359,-54.27349
2021-12-09 11:54:01+00:00,49.0,9.5,64.0,12.44,12.25,47.59359,-54.27349
2021-12-09 12:04:01+00:00,51.0,10.09,57.0,12.98,12.25,47.59359,-54.27349
2021-12-09 12:14:00+00:00,59.0,13.83,73.0,18.53,12.25,47.59359,-54.27349
2021-12-09 12:24:00+00:00,47.0,10.45,57.0,13.57,12.25,47.59359,-54.27349
2021-12-09 12:34:00+00:00,47.0,11.84,58.0,14.09,12.25,47.59359,-54.27349
2021-12-09 12:44:00+00:00,44.0,11.68,53.0,15.36,12.25,47.59359,-54.27349
2021-12-09 12:54:00+00:00,49.0,13.14,57.0,17.8,12.25,47.59359,-54.27349
2021-12-09 13:04:00+00:00,51.0,14.92,56.0,19.01,12.25,47.59359,-54.27349
2021-12-09 13:14:01+00:00,54.0,15.77,58.0,20.1,12.25,47.59359,-54.27349
2021-12-09 13:24:01+00:00,54.0,15.45,59.0,20.75,12.25,47.59359,-54.27349
2021-12-09 13:34:01+00:00,52.0,16.34,55.0,21.1,12.25,47.59359,-54.27349
2021-12-09 13:44:01+00:00,57.0,15.57,59.0,20.74,12.25,47.59359,-54.27349
2021-12-09 13:54:01+00:00,54.0,16.83,53.0,21.78,12.25,47.59359,-54.27349
2021-12-09 14:04:01+00:00,60.0,17.79,50.0,21.36,12.25,47.59359,-54.27349
2021-12-09 14:14:00+00:00,56.0,19.29,55.0,22.23,12.25,47.59359,-54.27349
2021-12-09 14:24:00+00:00,61.0,18.69,57.0,21.75,12.25,47.59359,-54.27349
2021-12-09 14:34:00+00:00,65.0,16.81,71.0,19.86,12.25,47.59359,-54.27349
2021-12-09 14:44:00+00:00,58.0,18.63,54.0,22.03,12.25,47.59359,-54.27349
2021-12-09 14:54:00+00:00,60.0,16.78,59.0,20.94,12.25,47.59359,-54.27349
2021-12-09 15:04:00+00:00,61.0,17.99,57.0,21.66,12.25,47.59359,-54.27349
2021-12-09 15:14:01+00:00,61.0,19.46,56.0,21.58,12.41,47.59359,-54.27349
2021-12-09 15:24:01+00:00,59.0,18.54,58.0,21.21,12.41,47.59359,-54.27349
2021-12-09 15:34:01+00:00,62.0,18.63,60.0,20.81,12.41,47.59359,-54.27349
2021-12-09 15:44:01+00:00,58.0,18.05,58.0,21.65,12.41,47.59359,-54.27349
2021-12-09 15:54:01+00:00,60.0,19.32,57.0,21.23,12.41,47.59359,-54.27349
2021-12-09 16:04:01+00:00,65.0,19.2,69.0,26.53,12.41,47.59359,-54.27349
2021-12-09 16:14:01+00:00,61.0,18.49,59.0,20.78,12.33,47.59359,-54.27349
2021-12-09 16:24:01+00:00,62.0,17.81,59.0,21.11,12.33,47.59359,-54.27349
2021-12-09 16:34:01+00:00,66.0,18.98,69.0,23.76,12.33,47.59359,-54.27349
2021-12-09 16:44:01+00:00,61.0,18.37,59.0,21.38,12.33,47.59359,-54.27349
2021-12-09 16:54:01+00:00,64.0,19.02,66.0,24.03,12.33,47.59359,-54.27349
2021-12-09 17:04:01+00:00,65.0,17.98,65.0,20.16,12.33,47.59359,-54.27349
2021-12-09 17:14:01+00:00,61.0,19.5,63.0,25.36,12.33,47.59359,-54.27349
2021-12-09 17:24:01+00:00,63.0,18.17,60.0,21.46,12.33,47.59359,-54.27349
2021-12-09 17:34:01+00:00,58.0,19.62,56.0,21.57,12.33,47.59359,-54.27349
2021-12-09 17:44:01+00:00,59.0,18.87,63.0,21.27,12.33,47.59359,-54.27349
2021-12-09 17:54:01+00:00,61.0,18.84,64.0,22.24,12.33,47.59359,-54.27349
2021-12-09 18:04:01+00:00,57.0,19.06,58.0,22.67,12.33,47.59359,-54.27349
2021-12-09 18:14:01+00:00,62.0,19.88,71.0,27.05,12.25,47.59359,-54.27349
2021-12-09 18:24:01+00:00,60.0,18.25,59.0,21.27,12.25,47.59359,-54.27349
2021-12-09 18:34:01+00:00,59.0,20.07,68.0,25.21,12.25,47.59359,-54.27349
2021-12-09 18:44:01+00:00,56.0,15.98,60.0,21.12,12.25,47.59359,-54.27349
2021-12-09 18:54:01+00:00,51.0,17.19,52.0,22.75,12.25,47.59359,-54.27349
2021-12-09 19:04:01+00:00,57.0,19.07,56.0,21.93,12.25,47.59359,-54.27349
2021-12-09 19:14:01+00:00,54.0,19.45,51.0,22.08,12.25,47.59359,-54.27349
2021-12-09 19:24:01+00:00,45.0,16.83,54.0,21.92,12.25,47.59359,-54.27349
2021-12-09 19:34:01+00:00,34.0,16.26,51.0,20.93,12.25,47.59359,-54.27349
2021-12-09 19:44:01+00:00,45.0,20.07,48.0,23.85,12.25,47.59359,-54.27349
2021-12-09 19:54:01+00:00,22.0,17.71,24.0,20.06,12.25,47.59359,-54.27349
2021-12-09 20:04:01+00:00,26.0,17.93,39.0,21.95,12.25,47.59359,-54.27349
2021-12-09 20:14:01+00:00,25.0,18.36,32.0,21.12,12.25,47.59359,-54.27349
2021-12-09 20:24:01+00:00,26.0,17.45,35.0,22.7,12.25,47.59359,-54.27349
2021-12-09 20:34:01+00:00,23.0,19.83,18.0,23.42,12.25,47.59359,-54.27349
2021-12-09 20:44:01+00:00,21.0,19.91,24.0,23.04,12.25,47.59359,-54.27349
2021-12-09 20:54:01+00:00,17.0,17.79,21.0,23.05,12.25,47.59359,-54.27349
2021-12-09 21:04:01+00:00,359.0,17.51,354.0,21.82,12.25,47.59359,-54.27349
2021-12-09 21:14:01+00:00,1.0,16.39,359.0,21.39,12.25,47.59359,-54.27349
2021-12-09 21:24:01+00:00,357.0,19.74,0.0,24.46,12.25,47.59359,-54.27349
2021-12-09 21:34:01+00:00,1.0,22.17,2.0,25.91,12.25,47.59359,-54.27349
2021-12-09 21:44:01+00:00,0.0,21.57,352.0,26.71,12.25,47.59359,-54.27349
2021-12-09 21:54:01+00:00,353.0,21.51,348.0,28.11,12.25,47.59359,-54.27349
2021-12-09 22:04:01+00:00,342.0,20.66,343.0,23.37,12.25,47.59359,-54.27349
2021-12-09 22:14:01+00:00,338.0,22.33,330.0,27.63,12.25,47.59359,-54.27349
2021-12-09 22:24:01+00:00,337.0,21.92,330.0,25.92,12.25,47.59359,-54.27349
2021-12-09 22:34:01+00:00,336.0,25.02,349.0,29.69,12.25,47.59359,-54.27349
2021-12-09 22:44:01+00:00,348.0,24.22,350.0,28.86,12.25,47.59359,-54.27349
2021-12-09 22:54:01+00:00,346.0,22.97,349.0,27.0,12.25,47.59359,-54.27349
2021-12-09 23:04:01+00:00,344.0,24.89,334.0,30.4,12.25,47.59359,-54.27349
2021-12-09 23:14:01+00:00,352.0,21.94,345.0,24.65,12.25,47.59359,-54.27349
2021-12-09 23:24:01+00:00,337.0,18.79,339.0,22.8,12.25,47.59359,-54.27349
2021-12-09 23:34:01+00:00,329.0,16.67,322.0,20.04,12.25,47.59359,-54.27349
2021-12-09 23:44:01+00:00,325.0,16.05,325.0,20.1,12.25,47.59359,-54.27349
2021-12-09 23:54:01+00:00,334.0,18.09,324.0,21.62,12.25,47.59359,-54.27349
